Погода в Знаменке

Россия / Челябинская область     56°06′50″N   60°53′13″E
темп.,
°C
ветер,
м/с
пор.,
м/с
влажн.,
%
обл.,
%
осадки,
мм/ч
давл.,
гПа
погр.,
м
15 мая, сб
сб1523:00+20з33440 0.0 102226
02:00+17зсз485767 0.1 1023110
05:00+16з35615 0.1 102366
08:00+22з474687 0.0 1023292
11:00+27з57315 0.0 10221454
14:00+29з79255 0.0 10202589
17:00+29з78265 0.0 10202447
20:00+24зсз484497 0.0 1020159
16 мая, вс
вс1623:00+20з411555 0.0 1020202
02:00+18з485943 0.0 1020126
05:00+18з41256100 0.0 1020217
08:00+23з5124483 0.0 1020460
11:00+28зсз682784 0.0 10201176
14:00+30зсз6722100 0.0 10202494
17:00+30з58225 0.0 10193441
20:00+25з46375 0.0 101985
17 мая, пн
пн1723:00+20зюз48473 0.0 1020120
02:00+19з36537 0.0 101975
05:00+18з47550 0.0 102096
08:00+23з59420 0.0 1020364
11:00+29з57267 0.0 10193121
14:00+30з782364 0.0 10183412
17:00+29зсз7926100 0.0 10173123
20:00+24зсз51037100 0.0 1017246
18 мая, вт
вт1823:00+19з47535 0.0 1017111
02:00+18з496297 0.0 1018144
05:00+17з356999 0.0 101868
08:00+21зсз4756100 0.0 1018309
11:00+24сз5743100 0.0 10181359
14:00+27сз58272 0.0 10172640
17:00+28сз6102615 0.0 10163199
20:00+24сз36411 0.0 101584
19 мая, ср
ср1923:00+16с4572100 1.6 1019130
02:00+14з11800 1.6 102010
05:00+13св22813 1.6 102122
08:00+17св35633 0.0 1023524
11:00+21в33491 0.0 10231090
14:00+24вюв22415 0.0 10221733
17:00+25ююв22375 0.0 10221943
20:00+21ююв35535 0.0 1022100